203P/Korlevic (2010)

Japanese version
Home page
Total 6,336 html files since Dec. 4, 1995
Updated on October 12, 2008

---------------------------------------------------------------------

* Profile

Designation 203P/2008 R4
Recovery Date September 3, 2008
Magnitude 20.3 mag
Recoverer T. H. Bressi (Spacewatch), G. V. Williams (Minor Planet Center)

* Orbital Elements

Epoch 2010 Feb. 13.0 TT = JDT 2455240.5
T 2010 Feb. 8.19837 TT                                  MPC
q   3.1821246            (2000.0)            P               Q
n   0.09841083     Peri.  154.54431     +0.08471186     -0.99521923
a   4.6463021      Node   290.56503     +0.90507905     +0.09725760
e   0.3151275      Incl.    2.97583     +0.41672030     -0.00892433
P  10.02

* Finding Charts

* Magnitudes Graph

        m1 = 5.0 + 5 log d + 18.0 log r(t - 300)

---------------------------------------------------------------------

The orbital elements are published on M.P.E.C. 2008-R53.
The charts are made with StellaNavigator Ver.2.0 for Windows (AstroArts / ASCII).
The magnitudes graphs are made with Comet for Windows.

---------------------------------------------------------------------

Copyright(C) 1995-2008 Seiichi Yoshida (comet@aerith.net). All rights reserved.